Zurück zum Katalog

NIMBUS 2 DEB

AktivLEO
NORAD 28615·DEBRIS·🇺🇸 United States

Gestartet May 15, 1966 von Vandenberg Space Force Base

Loading…

Nächste Überflüge (nächste 24 Stunden)

TLE

AktuellSource: Space-Track

Epoche: Sep 12, 2026, 17:20 UTC

1 28615U 66040AE  26255.72261932  .00003922  00000-0  29958-2 0  9991
2 28615 100.2422  58.1990 0033702 277.1496  93.1680 13.93901715617996

Verfolge NIMBUS 2 DEB in Echtzeit mit AllMySat

Download on the App Store